Change the Weather History Date:

Tuesday, December 11, 2012

  Actual Average Record
Temperature  
Mean Temperature 27 °F 24 °F  
Max Temperature 33 °F 31 °F 59 °F (1949)
Min Temperature 20 °F 17 °F -17 °F (1972)
Degree Days  
Heating Degree Days 38 41  
Month to date heating degree days 300 427  
Since 1 July heating degree days 1815 2006  
Cooling Degree Days 0 0  
Month to date cooling degree days 0 0  
Year to date cooling degree days 1068 568  
Moisture  
Dew Point 20 °F    
Average Humidity 77    
Maximum Humidity 91    
Minimum Humidity 62    
Precipitation  
Precipitation T in 0.06 in 1.11 in (1965)
Month to date precipitation 0.57 0.76  
Year to date precipitation 24.33 33.50  
Snow  
Snow T in 0.50 in 5.30 in (1904)
Month to date snowfall 4.1 4.7  
Since 1 July snowfall 4.2 8.8  
Snow Depth 2.00 in    
Sea Level Pressure  
Sea Level Pressure 29.98 in    
Wind  
Wind Speed 7 mph (SW)    
Max Wind Speed 14 mph    
Max Gust Speed 22 mph    
Visibility 9 miles    
Events Snow    
T = Trace of Precipitation, MM = Missing Value Source: NWS Daily Summary

Daily Weather History Graph

Daily Weather History Graph

Search for Another Location

Airport or City:

Trip Planner

Search our weather history database for the weather conditions in past years. The results will help you decide how hot, cold, wet, or windy it might be!

Date:

Astronomy

Dec. 11, 2012 Rise Set
Actual Time 7:19 AM CST 4:22 PM CST
Civil Twilight 6:47 AM CST 4:54 PM CST
Nautical Twilight 6:11 AM CST 5:30 PM CST
Astronomical Twilight 5:36 AM CST 6:05 PM CST
Moon 5:12 AM CST (12/11) 3:02 PM CST (12/11)
Length of Visible Light 10h 07m
Length of Day
9h 02m
Waning Crescent, 4% of the Moon is Illuminated
Dec 11
Waning Crescent
Dec 13
New
Dec 19
First Quarter
Dec 28
Full
Jan 4
Last Quarter

Hourly Weather History & Observations

Time (CST) Temp. Windchill Dew Point Humidity Pressure Visibility Wind Dir Wind Speed Gust Speed Precip Events Conditions
12:25 AM 28.4 °F 23.3 °F 21.2 °F 74% 29.91 in 9.0 mi SW 4.6 mph - 0.00 in Snow Light Snow
12:53 AM 27.0 °F 21.6 °F 21.9 °F 81% 29.94 in 9.0 mi SW 4.6 mph - 0.00 in Snow Light Snow
1:08 AM 26.6 °F - 21.2 °F 80% 29.91 in 9.0 mi Calm Calm - 0.00 in Snow Light Snow
1:53 AM 26.1 °F 21.9 °F 21.9 °F 84% 29.95 in 9.0 mi Variable 3.5 mph - 0.00 in Snow Light Snow
2:02 AM 26.6 °F 21.2 °F 21.2 °F 80% 29.92 in 9.0 mi SW 4.6 mph - 0.00 in Snow Light Snow
2:53 AM 23.0 °F 13.9 °F 21.0 °F 92% 29.96 in 8.0 mi SW 8.1 mph - 0.00 in   Overcast
3:53 AM 23.0 °F 14.7 °F 19.9 °F 88% 29.96 in 7.0 mi SW 6.9 mph - N/A   Mostly Cloudy
4:53 AM 21.9 °F 15.7 °F 18.0 °F 85% 29.96 in 10.0 mi SSW 4.6 mph - N/A   Mostly Cloudy
5:39 AM 21.2 °F 13.6 °F 17.6 °F 86% 29.92 in 10.0 mi SSW 5.8 mph - N/A   Partly Cloudy
5:53 AM 21.0 °F 12.4 °F 17.1 °F 85% 29.96 in 10.0 mi SSW 6.9 mph - N/A   Partly Cloudy
6:53 AM 19.9 °F 11.1 °F 17.1 °F 89% 29.96 in 10.0 mi South 6.9 mph - N/A   Scattered Clouds
7:53 AM 21.0 °F 11.4 °F 16.0 °F 81% 29.95 in 10.0 mi South 8.1 mph - N/A   Mostly Cloudy
8:53 AM 23.0 °F 11.7 °F 15.1 °F 72% 29.95 in 10.0 mi South 11.5 mph - N/A   Mostly Cloudy
9:53 AM 25.0 °F 14.8 °F 14.0 °F 63% 29.96 in 10.0 mi South 10.4 mph - N/A   Mostly Cloudy
10:53 AM 25.0 °F 17.1 °F 15.1 °F 66% 29.94 in 10.0 mi SSW 6.9 mph - N/A   Overcast
11:53 AM 27.0 °F 19.5 °F 17.1 °F 66% 29.94 in 10.0 mi Variable 6.9 mph 16.1 mph 0.00 in   Partly Cloudy
12:53 PM 28.0 °F 19.3 °F 18.0 °F 66% 29.95 in 10.0 mi SW 9.2 mph 17.3 mph N/A   Partly Cloudy
1:53 PM 28.0 °F 19.3 °F 19.0 °F 69% 29.95 in 10.0 mi WSW 9.2 mph - N/A   Partly Cloudy
2:53 PM 28.0 °F 22.8 °F 18.0 °F 66% 29.96 in 10.0 mi Variable 4.6 mph - N/A   Mostly Cloudy
3:53 PM 28.0 °F 21.7 °F 19.0 °F 69% 29.99 in 10.0 mi SW 5.8 mph 16.1 mph N/A   Overcast
4:53 PM 28.9 °F 19.8 °F 19.0 °F 67% 30.00 in 10.0 mi WSW 10.4 mph 18.4 mph N/A   Overcast
5:53 PM 28.9 °F 23.9 °F 19.9 °F 69% 30.01 in 4.0 mi Variable 4.6 mph - 0.00 in Snow Light Snow
6:53 PM 30.0 °F 21.7 °F 21.0 °F 69% 30.01 in 10.0 mi South 9.2 mph - 0.00 in   Overcast
7:53 PM 30.0 °F 22.4 °F 21.9 °F 72% 30.03 in 9.0 mi SSW 8.1 mph - 0.00 in Snow Light Snow
8:53 PM 32.0 °F 24.8 °F 23.0 °F 69% 30.04 in 10.0 mi SW 8.1 mph - 0.00 in   Overcast
9:53 PM 33.1 °F 28.7 °F 24.1 °F 70% 30.06 in 10.0 mi SW 4.6 mph - N/A   Overcast
10:05 PM 33.8 °F 29.6 °F 24.8 °F 70% 30.03 in 10.0 mi WSW 4.6 mph - N/A   Overcast
10:53 PM 32.0 °F 27.5 °F 24.1 °F 73% 30.09 in 9.0 mi Variable 4.6 mph - 0.00 in Snow Light Snow
11:53 PM 32.0 °F 28.7 °F 23.0 °F 69% 30.11 in 9.0 mi Variable 3.5 mph - 0.00 in Snow Light Snow